This is the latest recevied weather packets stored in our database for station/object KN6CW-3. If no packets are shown the sender has not sent any weather packets the latest 10 day(s).
| Time | Temp. | Humidity | Pressure | Rain* | Wind** | Luminosity | Snow |
|---|---|---|---|---|---|---|---|
| 1777631903 | 1.67° C | 97% | 1013.8 hPa | 0 mm | - | 28 W/m² | - |
| 1777631604 | 1.67° C | 97% | 1013.7 hPa | 0 mm | - | 26 W/m² | - |
| 1777631303 | 1.67° C | 97% | 1013.6 hPa | 0 mm | - | 33 W/m² | - |
| 1777631003 | 1.67° C | 97% | 1013.5 hPa | 0 mm | - | 23 W/m² | - |
| 1777630702 | 1.67° C | 97% | 1013.6 hPa | 0 mm | - | 16 W/m² | - |
| 1777630402 | 1.67° C | 97% | 1013.5 hPa | 0 mm | - | 12 W/m² | - |
| 1777630103 | 1.67° C | 97% | 1013.5 hPa | 0 mm | - | 9 W/m² | - |
| 1777629801 | 1.67° C | 97% | 1013.4 hPa | 0 mm | - | 5 W/m² | - |
| 1777629502 | 1.67° C | 97% | 1013.4 hPa | 0 mm | - | 0 W/m² | - |
| 1777629201 | 1.67° C | 96% | 1013.3 hPa | 0 mm | - | 0 W/m² | - |
| 1777628901 | 1.67° C | 96% | 1013.3 hPa | 0 mm | - | 0 W/m² | - |
| 1777628600 | 1.67° C | 96% | 1013.4 hPa | 0 mm | - | 0 W/m² | - |
| 1777628300 | 1.67° C | 96% | 1013.3 hPa | 0 mm | - | 0 W/m² | - |
| 1777628000 | 1.67° C | 96% | 1013.3 hPa | 0 mm | - | 0 W/m² | - |
| 1777627700 | 1.67° C | 96% | 1013.3 hPa | 0 mm | - | 0 W/m² | - |
| 1777627399 | 1.67° C | 96% | 1013.2 hPa | 0 mm | - | 0 W/m² | - |
| 1777627099 | 1.67° C | 96% | 1013.4 hPa | 0 mm | - | 0 W/m² | - |
| 1777626799 | 1.67° C | 96% | 1013.3 hPa | 0 mm | - | 0 W/m² | - |
| 1777626498 | 1.67° C | 96% | 1013.3 hPa | 0 mm | - | 0 W/m² | - |
| 1777626198 | 1.67° C | 96% | 1013.2 hPa | 0 mm | - | 0 W/m² | - |
| 1777625898 | 1.67° C | 96% | 1013 hPa | 0 mm | - | 0 W/m² | - |
| 1777625597 | 1.67° C | 96% | 1013 hPa | 0 mm | - | 0 W/m² | - |
| 1777625297 | 1.67° C | 96% | 1013 hPa | 0 mm | - | 0 W/m² | - |
| 1777624997 | 1.67° C | 96% | 1013.1 hPa | 0 mm | - | 0 W/m² | - |
| 1777624696 | 1.67° C | 96% | 1013.1 hPa | 0 mm | - | 0 W/m² | - |
* Rain latest hour (hover to see other rain measurements)
** Current wind speed in m/s (hover to see current wind gust speed)